Newburgh, NY

6:29 AM EST on December 15, 2019 (GMT -0500)
Stewart International

Weather History for KSWF - November, 2019

Change the Weather History Date:

Wednesday, November 20, 2019

  Actual Average Record
Temperature  
Mean Temperature 37 °F -  
Max Temperature 44 °F 46 °F 68 °F (1991)
Min Temperature 30 °F 30 °F 9 °F (1986)
Degree Days  
Heating Degree Days 28    
Moisture  
Dew Point 33 °F    
Average Humidity 85    
Maximum Humidity 100    
Minimum Humidity 57    
Precipitation  
Precipitation 0.00 in - - ()
Sea Level Pressure  
Sea Level Pressure 29.97 in    
Wind  
Wind Speed 2 mph (North)    
Max Wind Speed 12 mph    
Max Gust Speed 17 mph    
Visibility 9 miles    
Events      
Averages and records for this station are not official NWS values.
T = Trace of Precipitation, MM = Missing Value Source: NWS Daily Summary

Daily Weather History Graph

Daily Weather History Graph

Search for Another Location

Airport or City:

Astronomy

Nov. 20, 2019 Rise Set
Actual Time 6:50 AM EST 4:32 PM EST
Civil Twilight 6:20 AM EST 5:02 PM EST
Nautical Twilight 5:46 AM EST 5:36 PM EST
Astronomical Twilight 5:13 AM EST 6:09 PM EST
Moon No Moon Rise 1:33 PM EST (11/20)
Length of Visible Light 10h 42m
Length of Day
9h 42m
Last Quarter, 41% of the Moon is Illuminated
Nov 20
Last Quarter
Nov 26
New
Dec 4
First Quarter
Dec 12
Full
Dec 18
Last Quarter

Hourly Weather History & Observations

Time (EST) Temp. Windchill Dew Point Humidity Pressure Visibility Wind Dir Wind Speed Gust Speed Precip Events Conditions
12:45 AM 35.6 °F - 35.6 °F 100% 29.86 in 5.0 mi Calm Calm - N/A   Overcast
1:45 AM 35.6 °F - 35.6 °F 100% 29.86 in 5.0 mi Calm Calm - N/A   Overcast
3:45 AM 35.6 °F - 35.6 °F 100% 29.87 in 5.0 mi Calm Calm - N/A   Overcast
4:45 AM 35.6 °F - 33.8 °F 93% 29.88 in 7.0 mi Calm Calm - N/A   Overcast
5:45 AM 35.6 °F - 33.8 °F 93% 29.89 in 7.0 mi Calm Calm - N/A   Mostly Cloudy
6:45 AM 35.6 °F - 33.8 °F 93% 29.92 in 7.0 mi Calm Calm - N/A   Overcast
7:45 AM 35.6 °F - 33.8 °F 93% 29.94 in 10.0 mi Calm Calm - N/A   Overcast
8:45 AM 35.6 °F - 35.6 °F 100% 29.95 in 10.0 mi Calm Calm - N/A   Overcast
9:45 AM 39.2 °F - 35.6 °F 87% 29.96 in 10.0 mi Calm Calm - N/A   Overcast
10:45 AM 39.2 °F 35.9 °F 33.8 °F 81% 29.96 in 10.0 mi Variable 4.6 mph - N/A   Overcast
11:45 AM 41.0 °F 37.1 °F 33.8 °F 76% 29.96 in 10.0 mi Variable 5.8 mph - N/A   Overcast
12:45 PM 42.8 °F 40.1 °F 33.8 °F 70% 29.95 in 10.0 mi Variable 4.6 mph - N/A   Overcast
2:45 PM 44.6 °F 42.2 °F 30.2 °F 57% 29.96 in 10.0 mi Variable 4.6 mph - N/A   Overcast
3:45 PM 44.6 °F 38.8 °F 30.2 °F 57% 29.98 in 10.0 mi NNW 11.5 mph - N/A   Mostly Cloudy
4:45 PM 41.0 °F 35.8 °F 30.2 °F 65% 30.00 in 10.0 mi NNW 8.1 mph 17.3 mph N/A   Mostly Cloudy
5:45 PM 39.2 °F 35.0 °F 32.0 °F 75% 30.02 in 10.0 mi ENE 5.8 mph - N/A   Scattered Clouds
6:45 PM 35.6 °F 31.7 °F 30.2 °F 81% 30.05 in 10.0 mi Variable 4.6 mph - N/A   Scattered Clouds
7:45 PM 37.4 °F 33.8 °F 32.0 °F 81% 30.07 in 10.0 mi Variable 4.6 mph - N/A   Scattered Clouds
8:45 PM 33.8 °F - 32.0 °F 93% 30.08 in 10.0 mi Calm Calm - N/A   Scattered Clouds
10:45 PM 30.2 °F - 30.2 °F 100% 30.11 in 10.0 mi Calm Calm - N/A   Scattered Clouds
11:45 PM 30.2 °F - 30.2 °F 100% 30.11 in 7.0 mi Calm Calm - N/A   Scattered Clouds